Content
SEND FEEDBACK

Daily
Averages
Monthly
Summary
United States of America

ANN ARBOR, MICHIGAN


Home > North America > United States > Michigan
Elevation: 759 feet     Latitude: 42 17N     Longitude: 083 43W

WEATHER
 
SELECT A DAY
Number of Records: 203,193;   Date Range: 1/1/95 - 7/23/14
 
SHARE

PRINT THIS DATA

[ ← Previous Day ]
WEATHER ALMANAC - APRIL 19, 2014
[ Next Day → ]
[ °C ]   °F
Weather ElementAverageHighLow
Temperature45.4 °F55.9 °F (2:53 pm)32 °F (6:53 am)
Dewpoint27.3 °F32 °F (1:53 am)21.9 °F (2:53 pm)
Humidity52.8 %79 % (6:53 am)27 % (2:53 pm)
Barometer30.40 in30.47 in (9:53 am)30.36 in (5:53 pm)
Wind Speed8.2 mph12.7 mph (2:53 am)
Wind Gust17.3 mph (3:53 pm)
Weather ElementAverage
Visibility10 mi
Wind DirectionENE (83.3 °)

Weather ElementTotal
Precipitation---
Heating Degree Days21.1 (Base 65)
Averaged from 21 records on April 19, 2014
WEATHER CONDITIONS BREAKOUT
WIND DIRECTION BREAKOUT
WEATHER BY HOUR - APRIL 19, 2014
[ °C ]   °F
Local TimeTemperatureDewpointHumidityBarometerVisibilityWind DirectionWind SpeedGust SpeedPrecipitationEventsConditions
1:53 AM41.0 °F32.0 °F70 %30.37 in10.0 miENE (60°)8.1 mphOvercast
2:53 AM37.9 °F28.9 °F70 %30.38 in10.0 miNE (50°)12.7 mphMostly Cloudy
3:53 AM36.0 °F28.0 °F73 %30.39 in10.0 miNE (50°)9.2 mphClear
5:53 AM33.1 °F27.0 °F78 %30.41 in10.0 miNE (40°)6.9 mphClear
6:53 AM32.0 °F26.1 °F79 %30.43 in10.0 miNE (40°)4.6 mphClear
8:53 AM39.0 °F28.9 °F67 %30.45 in10.0 miENE (70°)6.9 mph16.1 mphClear
9:53 AM43.0 °F28.9 °F58 %30.47 in10.0 miEast (90°)11.5 mphClear
10:53 AM46.9 °F28.0 °F48 %30.47 in10.0 miENE (60°)9.2 mphClear
11:53 AM50.0 °F27.0 °F41 %30.46 in10.0 miEast (100°)11.5 mphClear
12:53 PM52.0 °F25.0 °F35 %30.44 in10.0 miSE (130°)8.1 mphClear
1:53 PM55.0 °F24.1 °F30 %30.43 in10.0 miENE (70°)10.4 mphClear
2:53 PM55.9 °F21.9 °F27 %30.41 in10.0 miEast (80°)9.2 mphClear
3:53 PM55.9 °F21.9 °F27 %30.39 in10.0 miESE (110°)10.4 mph17.3 mphClear
4:53 PM55.9 °F21.9 °F27 %30.38 in10.0 miESE (110°)10.4 mph16.1 mphClear
5:53 PM55.0 °F28.0 °F35 %30.36 in10.0 miSSE (150°)11.5 mphClear
6:53 PM52.0 °F30.0 °F43 %30.36 in10.0 miESE (110°)11.5 mphClear
7:53 PM48.0 °F28.9 °F48 %30.37 in10.0 miSSE (150°)8.1 mphClear
8:53 PM45.0 °F30.0 °F56 %30.38 in10.0 miSSE (150°)9.2 mphClear
9:53 PM42.1 °F28.9 °F60 %30.37 in10.0 miSE (130°)3.5 mphClear
10:53 PM37.9 °F28.9 °F70 %30.37 in10.0 miCalmClear
11:53 PM39.0 °F28.9 °F67 %30.36 in10.0 miCalmClear
Hourly data recorded from KARB, located miles away from Ann Arbor, Michigan







STORIES FROM OUR PARTNERS